Terminal Aerodrome Forecast
Issued by NWS

Home | Current Version | Previous Version | Text Only | Print | Product List | Glossary On
Versions: 1 2 3 4 5 6 7 8 9 10 11 12 13 14 15 16 17 18
000
FTUS44 KJAN 291525 AAB
TAFGTR
TAF AMD
KGTR 291525Z 2915/3012 23006KT P6SM VCSH SCT010
     FM291600 25006KT P6SM VCTS BKN035CB
     FM300000 22003KT P6SM SCT040=

USA.gov is the U.S. government's official web portal to all federal, state and local government web resources and services.